This demonstration page uses our WeatherBlox Daily Observations layout. Learn more.

Left ArrowRight Arrow

38.80484, -77.04692

Hourly Observations for May 15, 2021

Temp ( °F °C ) Dew Point ( °F °C ) Humidity (%) Winds ( mph kmh ) Pressure ( in mb ) Visibility ( mi km ) Precip ( " mm )
12:52 am 00:52 Mostly Cloudy 58 14.4 40 4.4 51 51 N N/A 30.23 1024 10 16 N/A
1:52 am 01:52 Mostly Cloudy 55 12.8 41 5 59 59 SW 5 7 30.23 1024 10 16 N/A
2:52 am 02:52 Mostly Cloudy 54 12.2 42 5.6 64 64 SW 3 6 30.22 1024 10 16 N/A
3:52 am 03:52 Mostly Cloudy 53 11.7 42 5.6 66 66 N N/A 30.22 1023 10 16 N/A
4:52 am 04:52 Mostly Cloudy 53 11.7 43 6.1 69 69 N N/A 30.22 1024 10 16 N/A
5:52 am 05:52 Mostly Clear 52 11.1 43 6.1 72 72 N N/A 30.23 1024 10 16 N/A
6:52 am 06:52 Mostly Sunny 53 11.7 44 6.7 72 72 N N/A 30.25 1024 10 16 N/A
7:52 am 07:52 Mostly Sunny 59 15 45 7.2 60 60 N 5 7 30.25 1025 10 16 N/A
8:52 am 08:52 Sunny with Light Rain 64 17.8 41 5 43 43 N 6 9 30.26 1025 10 16 N/A
9:52 am 09:52 Sunny 65 18.3 45 7.2 49 49 E 3 6 30.26 1025 10 16 N/A
10:52 am 10:52 Sunny 71 21.7 42 5.6 35 35 N N/A 30.26 1025 10 16 N/A
11:52 am 11:52 Partly Cloudy 75 23.9 33 0.6 22 22 N N/A 30.27 1025 10 16 N/A
12:52 pm 12:52 Partly Cloudy 77 25 34 1.1 21 21 NE 5 7 30.25 1024 10 16 N/A
1:52 pm 13:52 Mostly Sunny 77 25 34 1.1 21 21 ENE 5 7 30.23 1024 10 16 N/A
2:52 pm 14:52 Mostly Cloudy 74 23.3 32 undefined 21 21 E 5 7 30.22 1023 10 16 N/A
3:52 pm 15:52 Partly Cloudy 78 25.6 33 0.6 19 19 E 3 6 30.20 1023 10 16 N/A
4:52 pm 16:52 Mostly Sunny 78 25.6 33 0.6 19 19 N N/A 30.19 1022 10 16 N/A
5:52 pm 17:52 Partly Cloudy 74 23.3 36 2.2 25 25 ESE 8 13 30.19 1022 10 16 N/A
6:52 pm 18:52 Mostly Cloudy 71 21.7 40 4.4 32 32 SE 8 13 30.19 1022 10 16 N/A
7:52 pm 19:52 Partly Cloudy 68 20 43 6.1 40 40 SSE 6 9 30.20 1023 10 16 N/A
8:52 pm 20:52 Mostly Cloudy 68 20 42 5.6 39 39 SSW 3 6 30.21 1023 10 16 N/A
9:52 pm 21:52 Cloudy 66 18.9 45 7.2 47 47 N N/A 30.23 1024 10 16 N/A
10:52 pm 22:52 Mostly Cloudy 64 17.8 43 6.1 46 46 S 10 17 30.23 1024 10 16 N/A
11:52 pm 23:52 Mostly Cloudy 61 16.1 46 7.8 58 58 S 10 17 30.23 1024 10 16 N/A

Powered by AerisWeather